This is the latest recevied weather packets stored in our database for station/object DH9SB-6. If no packets are shown the sender has not sent any weather packets the latest 10 day(s).
| Time | Temp. | Humidity | Pressure | Rain* | Wind** | Luminosity | Snow |
|---|---|---|---|---|---|---|---|
| 1777896778 | 22.22° C | 43% | - | 0 mm | - | - | - |
| 1777896155 | 22.22° C | 43% | - | 0 mm | - | - | - |
| 1777895577 | 22.22° C | 42% | - | 0 mm | - | - | - |
| 1777894956 | 22.78° C | 40% | - | 0 mm | - | - | - |
| 1777894426 | 22.78° C | 40% | - | 0 mm | - | - | - |
| 1777893759 | 22.78° C | 40% | - | 0 mm | - | - | - |
| 1777893177 | 22.22° C | 42% | - | 0 mm | - | - | - |
| 1777892553 | 22.22° C | 39% | - | 0 mm | - | - | - |
| 1777891977 | 21.67° C | 41% | - | 0 mm | - | - | - |
| 1777891354 | 22.22° C | 43% | - | 0 mm | - | - | - |
| 1777890778 | 22.22° C | 41% | - | 0 mm | - | - | - |
| 1777890153 | 22.22° C | 40% | - | 0 mm | - | - | - |
| 1777889578 | 22.22° C | 41% | - | 0 mm | - | - | - |
| 1777888953 | 21.67° C | 42% | - | 0 mm | - | - | - |
| 1777888379 | 21.67° C | 42% | - | 0 mm | - | - | - |
| 1777887755 | 21.67° C | 40% | - | 0 mm | - | - | - |
| 1777887178 | 22.78° C | 37% | - | 0 mm | - | - | - |
| 1777886556 | 23.33° C | 41% | - | 0 mm | - | - | - |
| 1777885977 | 22.22° C | 43% | - | 0 mm | - | - | - |
| 1777885353 | 22.78° C | 41% | - | 0 mm | - | - | - |
| 1777884780 | 22.78° C | 44% | - | 0 mm | - | - | - |
| 1777884154 | 22.22° C | 50% | - | 0 mm | - | - | - |
| 1777883577 | 21.11° C | 54% | - | 0 mm | - | - | - |
| 1777882954 | 19.44° C | 54% | - | 0 mm | - | - | - |
| 1777882378 | 19.44° C | 54% | - | 0 mm | - | - | - |
* Rain latest hour (hover to see other rain measurements)
** Current wind speed in m/s (hover to see current wind gust speed)